Weather History for PAFA - November, 2010

Change the Weather History Date:

Friday, November 12, 2010

  Actual Average Record
Temperature  
Mean Temperature 14 °F 3 °F  
Max Temperature 21 °F 12 °F 41 °F (1976)
Min Temperature 6 °F -5 °F -36 °F (1989)
Degree Days  
Heating Degree Days 51 62  
Month to date heating degree days 601 699  
Since 1 July heating degree days 2557 2958  
Cooling Degree Days 0 0  
Month to date cooling degree days 0 0  
Year to date cooling degree days 66 61  
Moisture  
Dew Point 10 °F    
Average Humidity 83    
Maximum Humidity 92    
Minimum Humidity 77    
Precipitation  
Precipitation 0.00 in 0.03 in 0.22 in (1967)
Month to date precipitation 0.08 0.28  
Year to date precipitation 8.45 9.78  
Snow  
Snow 0.00 in 0.50 in 3.60 in (1951)
Month to date snowfall 1.5 5.3  
Since 1 July snowfall 9.2 17.9  
Since 1 September snowfall 9.2 17.9  
Snow Depth 5.00 in    
Sea Level Pressure  
Sea Level Pressure 29.47 in    
Wind  
Wind Speed 5 mph (NE)    
Max Wind Speed 7 mph    
Max Gust Speed -    
Visibility 10 miles    
Events      
T = Trace of Precipitation, MM = Missing Value Source: NWS Daily Summary

Daily Weather History Graph

Daily Weather History Graph

Search for Another Location

Airport or City:

Trip Planner

Search our weather history database for the weather conditions in past years. The results will help you decide how hot, cold, wet, or windy it might be!

Date:

Astronomy

Nov. 12, 2010 Rise Set
Actual Time 9:16 AM AKST 3:53 PM AKST
Civil Twilight 8:16 AM AKST 4:54 PM AKST
Nautical Twilight 7:14 AM AKST 5:55 PM AKST
Astronomical Twilight 6:17 AM AKST 6:53 PM AKST
Moon 2:28 PM AKST (11/12) 10:42 PM AKST (11/12)
Length of Visible Light 8h 38m
Length of Day
6h 36m
Waxing Crescent, 42% of the Moon is Illuminated
Nov 12
Waxing Crescent
Nov 13
First Quarter
Nov 21
Full
Nov 28
Last Quarter
Dec 5
New

Hourly Weather History & Observations

Time (AKST) Temp. Windchill Dew Point Humidity Pressure Visibility Wind Dir Wind Speed Gust Speed Precip Events Conditions
12:53 AM 7.0 °F -1.7 °F 3.9 °F 87% 29.50 in 10.0 mi NNE 4.6 mph - N/A   Mostly Cloudy
1:53 AM 7.0 °F -1.7 °F 3.9 °F 87% 29.50 in 10.0 mi NNE 4.6 mph - N/A   Mostly Cloudy
2:53 AM 10.9 °F 4.7 °F 8.1 °F 88% 29.50 in 10.0 mi NNE 3.5 mph - N/A   Mostly Cloudy
3:53 AM 14.0 °F 3.9 °F 10.0 °F 84% 29.49 in 10.0 mi NE 6.9 mph - N/A   Mostly Cloudy
4:53 AM 17.1 °F 7.6 °F 10.9 °F 77% 29.48 in 10.0 mi NE 6.9 mph - N/A   Mostly Cloudy
5:53 AM 18.0 °F 11.1 °F 12.9 °F 81% 29.47 in 10.0 mi North 4.6 mph - N/A   Mostly Cloudy
6:53 AM 18.0 °F 11.1 °F 12.9 °F 81% 29.49 in 10.0 mi ENE 4.6 mph - N/A   Mostly Cloudy
7:53 AM 15.1 °F 9.4 °F 12.0 °F 88% 29.48 in 10.0 mi NE 3.5 mph - N/A   Mostly Cloudy
8:53 AM 17.1 °F 7.6 °F 12.0 °F 81% 29.48 in 10.0 mi NE 6.9 mph - N/A   Scattered Clouds
9:53 AM 12.9 °F 3.8 °F 9.0 °F 84% 29.48 in 10.0 mi NE 5.8 mph - N/A   Partly Cloudy
10:53 AM 12.9 °F 5.2 °F 9.0 °F 84% 29.48 in 10.0 mi NE 4.6 mph - N/A   Scattered Clouds
11:53 AM 15.1 °F - 9.0 °F 77% 29.48 in 10.0 mi Calm Calm - N/A   Scattered Clouds
12:53 PM 15.1 °F 5.2 °F 9.0 °F 77% 29.49 in 10.0 mi NNE 6.9 mph - N/A   Scattered Clouds
1:53 PM 15.1 °F 6.4 °F 10.0 °F 80% 29.48 in 10.0 mi NNE 5.8 mph - N/A   Mostly Cloudy
2:53 PM 15.1 °F 5.2 °F 10.9 °F 84% 29.48 in 10.0 mi NNE 6.9 mph - N/A   Mostly Cloudy
3:53 PM 12.9 °F 5.2 °F 9.0 °F 84% 29.47 in 10.0 mi NNE 4.6 mph - N/A   Mostly Cloudy
4:53 PM 10.9 °F 4.7 °F 9.0 °F 92% 29.46 in 10.0 mi NE 3.5 mph - N/A   Scattered Clouds
5:53 PM 10.9 °F 0.2 °F 7.0 °F 84% 29.46 in 10.0 mi NE 6.9 mph - N/A   Mostly Cloudy
6:53 PM 10.9 °F 1.4 °F 7.0 °F 84% 29.45 in 10.0 mi NE 5.8 mph - N/A   Mostly Cloudy
7:53 PM 15.1 °F 6.4 °F 10.9 °F 84% 29.45 in 10.0 mi NE 5.8 mph - N/A   Mostly Cloudy
8:53 PM 16.0 °F 6.3 °F 10.9 °F 81% 29.44 in 10.0 mi NE 6.9 mph - N/A   Mostly Cloudy
9:53 PM 16.0 °F 8.8 °F 12.0 °F 84% 29.44 in 10.0 mi NE 4.6 mph - N/A   Overcast
10:53 PM 18.0 °F 12.7 °F 14.0 °F 84% 29.44 in 10.0 mi ENE 3.5 mph - N/A   Overcast
11:53 PM 19.0 °F 12.3 °F 14.0 °F 81% 29.43 in 10.0 mi NE 4.6 mph - N/A   Overcast